Location: Amherst
(42.5000°N, 72.5000°W)
Time: 21:32:43
(UTC-04:00)

ISS - Pass Details

Date: 21 May 2018
Orbit: 402 x 407 km, 51.6° (Epoch: 23 May)

Event Time Altitude Azimuth Distance (km) Brightness Sun altitude
Rises 04:09:30 0° 302° (WNW) 2,318 -0.1 -11.8°
Reaches altitude 10° 04:11:35 10° 299° (WNW) 1,456 -1.2 -11.5°
Maximum altitude 04:14:49 65° 217° (SW) 444 -3.9 -11.1°
Drops below altitude 10° 04:18:02 10° 135° (SE) 1,449 -1.0 -10.6°
Sets 04:20:07 0° 132° (SE) 2,305 0.1 -10.3°
